Content
SEND FEEDBACK

Daily
Averages
Monthly
Summary
Vietnam

THAI NGUYEN, VIETNAM


Home > Asia > Vietnam
Elevation: 134 feet     Latitude: 21 36N     Longitude: 105 50E

WEATHER
 
SELECT A DAY
Number of Records: 240,374;   Date Range: 7/1/96 - 9/16/14
 
SHARE

PRINT THIS DATA

[ ← Previous Day ]
WEATHER ALMANAC - JANUARY 31, 2013
[ Next Day → ]
[ °C ]   °F
Weather ElementAverageHighLow
Temperature70.4 °F75.2 °F (2:30 pm)68 °F (12:30 am)
Dewpoint63.6 °F66.2 °F (10:30 am) (7:00 pm)
Humidity82.8 %88 % (12:30 am)69 % (4:00 pm)
Barometer30.06 in30.12 in (8:30 am)30.01 in (2:30 pm)
Wind Speed8.1 mph12.7 mph (3:00 pm)
Weather ElementAverage
Visibility2.5 mi
Wind DirectionESE (115.1 °)

Weather ElementTotal
Precipitation---
Cooling Degree Days6.6 (Base 65)
Growing Degree Days21.6 (Base 50)
Averaged from 47 records on January 31, 2013
WEATHER CONDITIONS BREAKOUT
WIND DIRECTION BREAKOUT
WEATHER BY HOUR - JANUARY 31, 2013
[ °C ]   °F
Local TimeTemperatureDewpointHumidityBarometerVisibilityWind DirectionWind SpeedGust SpeedPrecipitationEventsConditions
12:30 AM68.0 °F64.4 °F88 %30.06 in1.5 miEast (100°)8.1 mphMostly Cloudy
1:00 AM68.0 °F64.4 °F88 %30.04 in1.4 miEast (90°)9.2 mphMostly Cloudy
1:30 AM68.0 °F64.4 °F88 %30.04 in1.4 miEast (90°)6.9 mphMostly Cloudy
2:00 AM68.0 °F64.4 °F88 %30.04 in1.4 miESE (110°)8.1 mphMostly Cloudy
2:30 AM68.0 °F64.4 °F88 %30.04 in1.4 miESE (110°)4.6 mphMostly Cloudy
3:00 AM68.0 °F64.4 °F88 %30.04 in1.6 miSE (130°)5.8 mphMostly Cloudy
3:30 AM68.0 °F64.4 °F88 %30.04 inESE (120°)5.8 mphMostly Cloudy
4:00 AM68.0 °F64.4 °F88 %30.04 in1.9 miESE (120°)6.9 mphMostly Cloudy
4:30 AM68.0 °F64.4 °F88 %30.04 inESE (120°)10.4 mphMostly Cloudy
5:00 AM68.0 °F64.4 °F88 %30.04 inSE (130°)5.8 mphMostly Cloudy
5:30 AM68.0 °F64.4 °F88 %30.06 in2.2 miESE (110°)6.9 mphMostly Cloudy
6:00 AM68.0 °F64.4 °F88 %30.06 in1.6 miEast (100°)6.9 mphLight Drizzle
6:30 AM68.0 °F64.4 °F88 %30.06 in1.4 miESE (110°)8.1 mphDrizzle
7:00 AM68.0 °F64.4 °F88 %30.09 in1.7 miVariable3.5 mphRainLight Rain
7:30 AM68.0 °F0.0 °F30.09 in0.9 miESE (120°)6.9 mphRainLight Rain
8:00 AM68.0 °F64.4 °F88 %30.09 in1.1 miESE (120°)10.4 mphRainLight Rain
8:30 AM68.0 °F64.4 °F88 %30.12 in1.9 miSE (130°)5.8 mphMostly Cloudy
9:00 AM68.0 °F64.4 °F88 %30.12 in1.4 miESE (110°)9.2 mphRainLight Rain
9:30 AM69.8 °F64.4 °F83 %30.12 in1.7 miENE (60°)6.9 mphMostly Cloudy
10:00 AM69.8 °F64.4 °F83 %30.12 inEast (80°)5.8 mphMostly Cloudy
10:30 AM71.6 °F66.2 °F83 %30.12 inESE (120°)6.9 mphMostly Cloudy
11:00 AM71.6 °F66.2 °F83 %30.09 inEast (100°)6.9 mphMostly Cloudy
11:30 AM71.6 °F64.4 °F78 %30.09 inESE (120°)8.1 mphMostly Cloudy
12:00 PM71.6 °F66.2 °F83 %30.09 inSE (140°)4.6 mphRainLight Rain
12:30 PM71.6 °F66.2 °F83 %30.09 in3.1 miSE (130°)5.8 mphRainLight Rain
1:00 PM71.6 °F66.2 °F83 %30.06 in3.1 miESE (120°)8.1 mphRainLight Rain
1:30 PM73.4 °F66.2 °F78 %30.04 in3.1 miESE (120°)9.2 mphRainLight Rain
2:00 PM73.4 °F66.2 °F78 %30.04 in3.1 miESE (120°)10.4 mphRainLight Rain
2:30 PM75.2 °F66.2 °F73 %30.01 in3.7 miSE (130°)10.4 mphMostly Cloudy
3:00 PM75.2 °F66.2 °F73 %30.01 in4.3 miESE (120°)12.7 mph
3:30 PM75.2 °F66.2 °F73 %30.01 in5.0 miSE (130°)10.4 mphMostly Cloudy
4:00 PM75.2 °F64.4 °F69 %30.01 in5.0 miSSE (150°)11.5 mphMostly Cloudy
4:30 PM75.2 °F66.2 °F73 %30.01 in4.3 miSSE (150°)11.5 mphMostly Cloudy
5:00 PM75.2 °F64.4 °F69 %30.04 in3.7 miSSE (150°)8.1 mphMostly Cloudy
5:30 PM73.4 °F66.2 °F78 %30.04 in3.7 miSE (130°)6.9 mphMostly Cloudy
6:00 PM73.4 °F66.2 °F78 %30.01 in3.7 miESE (120°)9.2 mphMostly Cloudy
6:30 PM73.4 °F64.4 °F73 %30.04 in4.3 miESE (120°)9.2 mphMostly Cloudy
7:00 PM71.6 °F64.4 °F78 %30.04 in4.3 miSE (130°)11.5 mphScattered Clouds
7:30 PM71.6 °F66.2 °F83 %30.04 in2.8 miESE (120°)8.1 mphScattered Clouds
8:00 PM69.8 °F64.4 °F83 %30.04 in3.1 miESE (120°)9.2 mphPartly Cloudy
8:30 PM69.8 °F64.4 °F83 %30.06 inSE (130°)8.1 mphMist
9:00 PM69.8 °F64.4 °F83 %30.06 inESE (120°)8.1 mphMist
9:30 PM69.8 °F64.4 °F83 %30.06 in1.7 miESE (120°)8.1 mphMist
10:00 PM68.0 °F64.4 °F88 %30.06 in1.4 miESE (120°)8.1 mphMist
10:30 PM68.0 °F64.4 °F88 %30.06 in1.4 miEast (100°)9.2 mphScattered Clouds
11:00 PM68.0 °F64.4 °F88 %30.06 in1.4 miESE (110°)8.1 mphMostly Cloudy
11:30 PM69.8 °F64.4 °F83 %30.06 in1.7 miESE (110°)8.1 mphMostly Cloudy
Hourly data recorded from VVNB, located miles away from Thai Nguyen, Vietnam







STORIES FROM OUR PARTNERS